Regional Weather Roundup
Issued by NWS

Home | Current Version | Previous Version | Graphics & Text | Print | Product List | Glossary Off
Versions: 1 2 3 4 5 6 7 8 9 10 11 12 13 14 15 16 17 18 19 20 21 22 23 24 25 26 27 28 29 30 31 32 33 34 35 36 37 38 39 40 41 42 43 44 45 46 47 48 49 50

000
ASUS43 KDMX 240806
RWRIA

WEATHER ROUNDUP FOR IOWA
NATIONAL WEATHER SERVICE DES MOINES IA
300 AM CDT THU AUG 24 2017

NOTE: "FAIR" INDICATES FEW OR NO CLOUDS BELOW 12,000 FEET WITH NO
SIGNIFICANT WEATHER AND/OR OBSTRUCTIONS TO VISIBILITY.

* - THESE STATIONS ARE NOT NWS STATIONS...THUS NOT UNDER NWS
QUALITY CONTROL.  THEY ALSO DO NOT REPORT WEATHER SUCH
AS PRECIPITATION OR FOG.

IAZ001>003-012>014-020>022-031>034-043>046-240900-
   NORTHWEST IOWA

CITY           SKY/WX    TMP DP  RH WIND       PRES   REMARKS
CHEROKEE *     CLOUDY    64  62  93 S5        30.03S
ORANGE CITY *  PTCLDY    64  61  88 S5        30.01F
SIOUX CITY     MOCLDY    62  60  93 SE9       30.00S
SPENCER        CLOUDY    65  59  81 E6        30.04R
$$

IAZ055>058-069>071-079>083-090>094-240900-
   SOUTHWEST IOWA

CITY           SKY/WX    TMP DP  RH WIND       PRES   REMARKS
AUDUBON *      MOCLDY    61  57  88 N5        30.08R
LAMONI         CLEAR     63  56  78 SW5       30.07F
RED OAK *      CLEAR     59  59 100 SW3       30.05S
$$

IAZ047>049-059>061-072>074-084-240900-
   CENTRAL IOWA

CITY           SKY/WX    TMP DP  RH WIND       PRES   REMARKS
AMES           MOCLDY    60  60 100 CALM      30.06R
CHARITON *     MOCLDY    63  55  77 CALM      30.06F
DES MOINES     CLOUDY    64  58  80 S7        30.05S
GRINNELL*      CLOUDY    61  55  80 CALM      30.08R
MARSHALLTOWN   CLOUDY    61  59  93 CALM      30.06S
$$

IAZ004>006-015-016-023>025-035-036-240900-
   NORTH CENTRAL IOWA

CITY           SKY/WX    TMP DP  RH WIND       PRES   REMARKS
ESTHERVILLE    LGT RAIN  61  61 100 E8        30.05R
MASON CITY     LGT RAIN  60  58  92 CALM      30.09R
FOREST CITY *  CLOUDY    59  59 100 CALM      30.08R
WEBSTER CITY * CLOUDY    61  59  94 CALM      30.05R
IOWA FALLS *   CLOUDY    61  58  90 CALM      30.08R
$$

IAZ007>011-017>019-026>030-037>042-050>054-066-240900-
   NORTHEAST IOWA

CITY           SKY/WX    TMP DP  RH WIND       PRES   REMARKS
CEDAR RAPIDS   CLOUDY    58  55  90 CALM      30.05F
CHARLES CITY * MOCLDY    55  55 100 NE6       30.09R
CLINTON *      CLEAR     54  53  97 CALM      30.07R
WATERLOO       MOCLDY    57  56  96 NE6       30.06R
$$

IAZ064-065-067-068-078-240900-
   EAST CENTRAL IOWA

CITY           SKY/WX    TMP DP  RH WIND       PRES   REMARKS
DAVENPORT      CLEAR     54  52  93 NW3       30.08S
IOWA CITY      CLOUDY    60  55  83 CALM      30.07S
MT. PLEASANT * MOCLDY    57  57  99 CALM      30.08R
QUAD CITIES    PTCLDY    56  52  86 CALM      30.06S
$$

IAZ062-063-075>077-085>089-095>099-240900-
   SOUTHEAST IOWA

CITY           SKY/WX    TMP DP  RH WIND       PRES   REMARKS
BURLINGTON     CLEAR     56  56 100 CALM      30.07R
FORT MADISON * PTCLDY    57  57 100 CALM      30.08S
OSKALOOSA *      N/A     59  56  90 S3        30.07R
CENTERVILLE *    N/A     57  57 100 CALM      30.09S
OTTUMWA        CLOUDY    61  58  90 S3        30.06S
WASHINGTON *   PTCLDY    57  55  94 SW5       30.08R
$$

ABBREVIATIONS USED IN REMARKS
   TC - TEMPERATURES IN CELSIUS
  WCI - WIND CHILL INDEX
   HX - HEAT INDEX
  VSB - VISIBILITY
$$





USA.gov is the U.S. government's official web portal to all federal, state and local government web resources and services.